#timestamp,LO_Frequency,Hit,StdDev 
1627167615.9,286046998.8,N
1627167635.7,286047000.6,N
1627167655.6,286046999.8,N
1627167675.4,286047002.3,N
1627167695.2,286047002.0,N
1627167715.1,286047001.5,N
1627167716.0,286047001.5,N
1627167735.8,286046999.8,N
1627167755.7,286047000.1,N
1627167775.5,286047002.6,N
1627167795.3,286047000.2,N
1627167815.2,286047001.9,N
1627167835.0,286047001.5,N
1627167835.9,286047001.5,N
1627167855.8,286047001.7,N
1627167875.6,286047001.8,N
1627167895.4,286047002.2,N
1627167915.3,286047004.3,N
1627167935.1,286047001.7,N
1627167955.8,286047002.3,N
1627167975.7,286047002.1,N
1627167995.5,286047001.6,N
1627168015.4,286047003.7,N
1627168035.2,286047003.9,N
1627168055.0,286047004.4,N
1627168055.9,286047004.4,N
1627168075.8,286047001.8,N
1627168095.6,286047002.2,N
1627168115.4,286047002.3,N
1627168135.3,286047001.7,N
1627168155.1,286047001.8,N
1627168175.9,286047003.2,N
1627168195.7,286047003.7,Y
1627168215.5,286047002.4,P
1627168235.4,286047002.8,P
1627168255.2,286047002.4,P
1627168275.1,286047000.0,N
1627168276.0,286047000.0,N
1627168295.8,286046999.7,N
1627168315.6,286047000.3,N
1627168335.5,286047002.4,N
1627168355.3,286047002.8,N
1627168375.1,286047000.3,N
1627168395.9,286047000.0,N
1627168415.7,286047001.0,N
1627168435.5,286046999.8,N
1627168455.4,286047000.2,N
1627168475.2,286047000.3,N
1627168495.1,286047000.1,N
1627168496.0,286047000.1,N
1627168515.8,286047000.0,N
1627168535.6,286047000.9,N
1627168555.5,286047000.1,N
1627168575.3,286047001.0,N
1627168595.1,286047002.7,N
1627168615.9,286047000.1,N
1627168635.7,286047000.2,N
1627168655.6,286047002.7,N
1627168675.4,286047002.0,N
1627168695.2,286047000.2,N
1627168715.1,286046999.7,N
1627168716.0,286046999.7,N
1627168735.8,286047001.9,N
1627168755.6,286047001.5,N
1627168775.5,286046999.8,N
1627168795.3,286047002.4,N
1627168815.2,286047000.2,N
1627168835.9,286047002.1,N
1627168855.7,286047002.1,N
1627168875.6,286047001.3,N
1627168895.4,286047004.0,Y
1627168915.2,286047000.2,P
1627168935.1,286047002.1,P
1627168936.0,286047002.1,N
1627168955.8,286047002.1,N
1627168975.7,286047002.4,Y
1627168995.5,286047001.1,P
1627169015.3,286046998.3,P
1627169035.2,286047000.6,N
1627169055.0,286047000.7,N
1627169055.9,286047000.7,N
1627169075.7,286046998.3,N
1627169095.6,286047000.6,N
1627169115.4,286047002.8,N
1627169135.3,286047002.3,N
1627169155.1,286047000.1,N
1627169156.0,286047000.1,N
1627169175.8,286047000.0,N
1627169195.7,286047000.0,N
1627169215.5,286047002.4,N
1627169235.3,286047002.8,N
1627169255.2,286047002.5,N
1627169275.0,286047000.3,N
1627169275.9,286047000.3,N
1627169295.8,286047000.9,N
1627169315.6,286047000.4,N
1627169335.4,286046998.1,N
1627169355.3,286046998.2,N
1627169375.1,286047000.1,N
1627169395.9,286047002.4,N
1627169415.7,286047000.0,N
1627169435.5,286047000.3,N
1627169455.4,286047000.0,N
1627169475.2,286047000.2,N
1627169495.0,286047002.7,N
1627169495.9,286047002.7,N
1627169515.8,286046999.7,N
1627169535.6,286047002.2,N
1627169555.5,286047001.5,N
1627169575.3,286047004.2,Y
1627169595.1,286047001.4,P
1627169615.9,286047002.1,P
1627169635.7,286047002.1,P
1627169655.6,286047002.0,Y
1627169675.4,286047000.2,P
1627169695.2,286046999.8,N
1627169715.1,286046999.7,N
1627169716.0,286046999.7,N
1627169735.8,286047001.5,N
1627169755.6,286047002.2,N
1627169775.5,286047002.4,N
1627169795.3,286047000.5,N
1627169815.1,286047000.9,N
1627169835.9,286046999.7,N
1627169855.7,286047002.4,N
1627169875.6,286047001.5,N
1627169895.4,286047002.3,N
1627169915.2,286047002.4,N
1627169935.1,286047000.2,N
1627169936.0,286047000.2,N
1627169955.8,286046999.8,N
1627169975.7,286047000.2,N
1627169995.5,286047000.9,N
1627170015.3,286046998.7,N
1627170035.2,286046997.0,N
1627170055.0,286046997.6,N
1627170055.9,286046997.6,N
1627170075.7,286046995.5,N
1627170095.6,286046995.6,N
1627170115.4,286046995.3,N
1627170135.3,286046995.8,N
1627170155.1,286046995.6,N
1627170156.0,286046995.6,N
1627170175.8,286046996.0,N
1627170195.7,286046996.0,N
1627170215.5,286046995.8,N
1627170235.3,286046996.0,N
1627170255.2,286046995.6,N
1627170275.0,286046994.9,N
1627170275.9,286046994.9,N
1627170295.8,286046997.6,N
1627170315.6,286046997.8,N
1627170335.4,286046997.8,N
1627170355.3,286046994.9,N
1627170375.1,286046995.3,N
1627170395.8,286046997.9,N
1627170415.7,286046997.6,N
1627170435.5,286046998.0,N
1627170455.4,286046997.6,N
1627170475.2,286046997.2,N
1627170495.0,286046997.2,N
1627170495.9,286046997.2,N
1627170515.8,286047011.9,Y
1627170535.6,286046999.8,P
1627170555.5,286046999.7,N
1627170575.3,286047002.7,N
1627170595.1,286047002.3,N
1627170615.9,286047000.2,N
1627170635.7,286047002.8,N
1627170655.5,286047002.3,N
1627170675.4,286047002.5,N
1627170695.2,286047002.6,N
1627170715.1,286047001.8,N
1627170716.0,286047001.8,N
1627170735.8,286047004.4,N
1627170755.6,286047004.1,N
1627170775.5,286047004.2,N
1627170795.3,286047003.4,N
1627170815.1,286047003.7,N
1627170835.9,286047003.9,N
1627170855.7,286047003.0,N
1627170875.5,286047003.5,N
1627170895.4,286047003.3,N
1627170915.2,286047003.5,N
1627170935.1,286047003.8,N
1627170936.0,286047003.8,N
1627170955.8,286047003.8,N
1627170975.6,286047004.4,N
1627170995.5,286047001.4,N
1627171015.3,286047004.0,N
1627171035.1,286047004.1,N
1627171055.9,286047003.8,N
1627171075.7,286047001.6,N
1627171095.6,286047001.7,N
1627171115.4,286047001.8,N
1627171135.2,286047001.6,N
1627171155.1,286047002.6,N
1627171156.0,286047002.6,N
1627171175.8,286047002.0,N
1627171195.7,286047001.4,N
